Weather History for Key West NAF, FL

Change the Weather History Date:

Monday, April 1, 2013

  Actual Average Record
Temperature  
Mean Temperature 78 °F -  
Max Temperature 84 °F 80 °F 88 °F (2011)
Min Temperature 71 °F 71 °F 56 °F (1987)
Cooling Degree Days 12    
Growing Degree Days 28 (Base 50)    
Moisture  
Dew Point 70 °F    
Average Humidity 82    
Maximum Humidity 93    
Minimum Humidity 55    
Precipitation  
Precipitation 0.00 in - - ()
Sea Level Pressure  
Sea Level Pressure 30.03 in    
Wind  
Wind Speed 8 mph (SSE)    
Max Wind Speed 12 mph    
Max Gust Speed -    
Visibility 10 miles    
Events      
Averages and records for this station are not official NWS values.
T = Trace of Precipitation, MM = Missing Value Source: NWS Daily Summary

Daily Weather History Graph

Daily Weather History Graph

Search for Another Location

Airport:

Trip Planner

Search our weather history database for the weather conditions in past years. The results will help you decide how hot, cold, wet, or windy it might be!

Date:

Astronomy

Apr. 01, 2013 Rise Set
Actual Time 7:18 AM EDT 7:43 PM EDT
Civil Twilight 6:55 AM EDT 8:05 PM EDT
Nautical Twilight 6:28 AM EDT 8:32 PM EDT
Astronomical Twilight 6:01 AM EDT 8:59 PM EDT
Moon 12:23 AM EDT (4/1) 11:30 AM EDT (4/1)
Length of Visible Light 13h 10m
Length of Day
12h 24m
Waning Gibbous, 67% of the Moon is Illuminated
Apr 1
Waning Gibbous
Apr 3
Last Quarter
Apr 10
New
Apr 18
First Quarter
Apr 25
Full

Hourly Weather History & Observations

Time (EDT) Temp. Heat Index Dew Point Humidity Pressure Visibility Wind Dir Wind Speed Gust Speed Precip Events Conditions
12:53 AM 73.0 °F - 70.0 °F 90% 30.04 in 10.0 mi ESE 6.9 mph - N/A   Clear
1:53 AM 73.0 °F - 70.0 °F 90% 30.02 in 10.0 mi ESE 9.2 mph - N/A   Clear
2:53 AM 73.0 °F - 70.0 °F 90% 30.01 in 10.0 mi SE 9.2 mph - N/A   Clear
3:53 AM 72.0 °F - 69.1 °F 91% 30.00 in 10.0 mi SE 6.9 mph - N/A   Clear
4:53 AM 71.1 °F - 69.1 °F 93% 30.00 in 10.0 mi SE 5.8 mph - N/A   Clear
5:53 AM 71.1 °F - 69.1 °F 93% 30.01 in 9.0 mi ESE 5.8 mph - N/A   Clear
6:53 AM 71.1 °F - 69.1 °F 93% 30.02 in 10.0 mi SE 5.8 mph - N/A   Clear
7:53 AM 72.0 °F - 70.0 °F 93% 30.04 in 10.0 mi ESE 4.6 mph - N/A   Clear
8:53 AM 75.0 °F - 71.1 °F 87% 30.05 in 10.0 mi SE 8.1 mph - N/A   Partly Cloudy
9:53 AM 77.0 °F - 72.0 °F 84% 30.06 in 10.0 mi South 8.1 mph - N/A   Clear
10:53 AM 79.0 °F - 71.1 °F 77% 30.07 in 10.0 mi South 8.1 mph - N/A   Scattered Clouds
11:53 AM 81.0 °F 85.2 °F 72.0 °F 74% 30.07 in 10.0 mi South 9.2 mph - N/A   Scattered Clouds
12:53 PM 81.0 °F 84.9 °F 71.1 °F 72% 30.07 in 10.0 mi SSW 10.4 mph - N/A   Scattered Clouds
1:53 PM 80.1 °F 83.6 °F 71.1 °F 74% 30.05 in 10.0 mi SSW 6.9 mph - N/A   Mostly Cloudy
2:53 PM 81.0 °F 84.9 °F 71.1 °F 72% 30.04 in 10.0 mi SSW 8.1 mph - N/A   Mostly Cloudy
3:53 PM 84.0 °F 86.3 °F 66.0 °F 55% 30.00 in 10.0 mi WSW 10.4 mph - N/A   Scattered Clouds
4:53 PM 82.9 °F 86.5 °F 69.1 °F 63% 29.99 in 10.0 mi WNW 11.5 mph - N/A   Partly Cloudy
5:53 PM 81.0 °F 84.9 °F 71.1 °F 72% 29.99 in 10.0 mi WNW 9.2 mph - N/A   Partly Cloudy
6:53 PM 78.1 °F - 71.1 °F 79% 30.01 in 10.0 mi NW 9.2 mph - N/A   Scattered Clouds
7:53 PM 75.9 °F - 72.0 °F 87% 30.02 in 10.0 mi North 6.9 mph - N/A   Scattered Clouds
8:53 PM 75.0 °F - 71.1 °F 87% 30.03 in 10.0 mi North 5.8 mph - N/A   Clear
9:53 PM 73.9 °F - 70.0 °F 87% 30.04 in 10.0 mi NNW 5.8 mph - N/A   Clear
10:53 PM 73.9 °F - 70.0 °F 87% 30.05 in 9.0 mi North 6.9 mph - N/A   Clear
11:53 PM 73.0 °F - 70.0 °F 90% 30.05 in 10.0 mi North 5.8 mph - N/A   Clear